Weather History for Willmar, MN

Change the Weather History Date:

Monday, July 29, 2013

  Actual Average (KLJF) Record (KLJF)
Temperature  
Mean Temperature 64 °F -  
Max Temperature 75 °F 82 °F 99 °F (1975)
Min Temperature 53 °F 60 °F 47 °F (1952)
Degree Days  
Heating Degree Days 1    
Growing Degree Days 14 (Base 50)    
Moisture  
Dew Point 53 °F    
Average Humidity 67    
Maximum Humidity 88    
Minimum Humidity 38    
Precipitation  
Precipitation 0.26 in - - ()
Sea Level Pressure  
Sea Level Pressure 30.10 in    
Wind  
Wind Speed 3 mph (SE)    
Max Wind Speed 8 mph    
Max Gust Speed -    
Visibility 10 miles    
Events Rain    
Averages and records for this station are not official NWS values.
T = Trace of Precipitation, MM = Missing Value Source: NWS Daily Summary

Daily Weather History Graph

Daily Weather History Graph

Search for Another Location

Airport:

Trip Planner

Search our weather history database for the weather conditions in past years. The results will help you decide how hot, cold, wet, or windy it might be!

Date:

Astronomy

Jul. 29, 2013 Rise Set
Actual Time 6:02 AM CDT 8:50 PM CDT
Civil Twilight 5:28 AM CDT 9:24 PM CDT
Nautical Twilight 4:44 AM CDT 10:08 PM CDT
Astronomical Twilight 3:53 AM CDT 10:58 PM CDT
Moon No Moon Rise 2:09 PM CDT (7/29)
Length of Visible Light 15h 56m
Length of Day
14h 48m
Waning Gibbous, 50% of the Moon is Illuminated
Jul 29
Waning Gibbous
Jul 29
Last Quarter
Aug 6
New
Aug 14
First Quarter
Aug 20
Full

Hourly Weather History & Observations

Time (CDT) Temp. Dew Point Humidity Pressure Visibility Wind Dir Wind Speed Gust Speed Precip Events Conditions
12:15 AM 57.2 °F 50.0 °F 77% 30.08 in 10.0 mi Calm Calm - N/A   Clear
12:35 AM 55.4 °F 50.0 °F 82% 30.09 in 10.0 mi Calm Calm - N/A   Clear
12:55 AM 55.4 °F 50.0 °F 82% 30.09 in 10.0 mi Calm Calm - N/A   Clear
1:15 AM 55.4 °F 50.0 °F 82% 30.09 in 10.0 mi Calm Calm - N/A   Clear
1:35 AM 55.4 °F 48.2 °F 77% 30.09 in 10.0 mi Calm Calm - N/A   Clear
1:55 AM 55.4 °F 50.0 °F 82% 30.09 in 10.0 mi Calm Calm - N/A   Clear
2:15 AM 55.4 °F 50.0 °F 82% 30.09 in 10.0 mi Calm Calm - N/A   Clear
2:35 AM 55.4 °F 48.2 °F 77% 30.09 in 10.0 mi ESE 3.5 mph - N/A   Clear
2:55 AM 55.4 °F 48.2 °F 77% 30.09 in 10.0 mi Calm Calm - N/A   Clear
3:15 AM 55.4 °F 51.8 °F 88% 30.09 in 10.0 mi Calm Calm - N/A   Clear
3:35 AM 55.4 °F 50.0 °F 82% 30.09 in 10.0 mi Calm Calm - N/A   Clear
3:55 AM 53.6 °F 48.2 °F 82% 30.09 in 10.0 mi Calm Calm - N/A   Clear
4:15 AM 55.4 °F 50.0 °F 82% 30.09 in 10.0 mi Calm Calm - N/A   Clear
4:35 AM 55.4 °F 51.8 °F 88% 30.10 in 10.0 mi SE 3.5 mph - N/A   Clear
4:55 AM 53.6 °F 48.2 °F 82% 30.09 in 10.0 mi ESE 3.5 mph - N/A   Clear
5:15 AM 53.6 °F 48.2 °F 82% 30.09 in 10.0 mi ESE 3.5 mph - N/A   Clear
5:35 AM 53.6 °F 48.2 °F 82% 30.09 in 10.0 mi ESE 5.8 mph - N/A   Clear
5:55 AM 53.6 °F 48.2 °F 82% 30.09 in 10.0 mi ESE 5.8 mph - N/A   Clear
6:16 AM 55.4 °F 50.0 °F 82% 30.09 in 10.0 mi SE 3.5 mph - N/A   Clear
6:35 AM 55.4 °F 51.8 °F 88% 30.10 in 10.0 mi SE 4.6 mph - N/A   Clear
6:55 AM 55.4 °F 51.8 °F 88% 30.10 in 10.0 mi SE 3.5 mph - N/A   Clear
7:16 AM 57.2 °F 51.8 °F 82% 30.10 in 10.0 mi ESE 3.5 mph - N/A   Clear
7:35 AM 59.0 °F 53.6 °F 82% 30.10 in 10.0 mi SE 4.6 mph - N/A   Clear
7:55 AM 60.8 °F 53.6 °F 77% 30.11 in 10.0 mi SE 5.8 mph - N/A   Clear
8:16 AM 60.8 °F 53.6 °F 77% 30.12 in 10.0 mi SSE 4.6 mph - N/A   Clear
8:35 AM 62.6 °F 55.4 °F 77% 30.13 in 10.0 mi SSE 3.5 mph - N/A   Clear
8:55 AM 62.6 °F 55.4 °F 77% 30.13 in 10.0 mi SSE 4.6 mph - N/A   Clear
9:16 AM 64.4 °F 53.6 °F 68% 30.13 in 10.0 mi SSE 4.6 mph - N/A   Clear
9:35 AM 66.2 °F 53.6 °F 64% 30.13 in 10.0 mi SSE 5.8 mph - N/A   Clear
9:55 AM 68.0 °F 53.6 °F 60% 30.13 in 10.0 mi SSE 5.8 mph - N/A   Clear
10:16 AM 69.8 °F 53.6 °F 56% 30.12 in 10.0 mi SSE 5.8 mph - N/A   Clear
10:35 AM 71.6 °F 53.6 °F 53% 30.12 in 10.0 mi SSE 5.8 mph - N/A   Clear
10:55 AM 71.6 °F 53.6 °F 53% 30.12 in 10.0 mi SE 6.9 mph - N/A   Clear
11:16 AM 73.4 °F 51.8 °F 47% 30.11 in 10.0 mi SSE 6.9 mph - N/A   Clear
11:35 AM 73.4 °F 51.8 °F 47% 30.11 in 10.0 mi SE 5.8 mph - N/A   Clear
11:55 AM 73.4 °F 51.8 °F 47% 30.11 in 10.0 mi South 5.8 mph - N/A   Scattered Clouds
12:16 PM 75.2 °F 51.8 °F 44% 30.10 in 10.0 mi SSE 6.9 mph - N/A   Scattered Clouds
12:35 PM 75.2 °F 48.2 °F 38% 30.10 in 10.0 mi SSE 6.9 mph - N/A   Clear
12:55 PM 75.2 °F 50.0 °F 41% 30.10 in 10.0 mi SSE 8.1 mph - N/A   Scattered Clouds
1:16 PM 75.2 °F 48.2 °F 38% 30.10 in 10.0 mi SE 8.1 mph - N/A   Scattered Clouds
1:35 PM 73.4 °F - N/A% 30.10 in - SE 8.1 mph - N/A   Unknown
1:56 PM 75.2 °F 50.0 °F 41% 30.09 in 10.0 mi SSE 8.1 mph - N/A   Scattered Clouds
2:15 PM 75.2 °F 48.2 °F 38% 30.10 in 10.0 mi SSW 4.6 mph - N/A   Scattered Clouds
2:36 PM 75.2 °F 48.2 °F 38% 30.09 in 10.0 mi South 5.8 mph - N/A   Scattered Clouds
2:55 PM 75.2 °F 50.0 °F 41% 30.08 in 10.0 mi SSE 8.1 mph - N/A   Clear
3:15 PM 73.4 °F 48.2 °F 41% 30.09 in 10.0 mi SSE 4.6 mph - N/A   Scattered Clouds
3:35 PM 75.2 °F 48.2 °F 38% 30.09 in 10.0 mi South 6.9 mph - N/A   Scattered Clouds
3:55 PM 75.2 °F 48.2 °F 38% 30.08 in 10.0 mi SSE 4.6 mph - N/A   Clear
4:15 PM 75.2 °F 48.2 °F 38% 30.08 in 10.0 mi SSE 6.9 mph - N/A   Clear
4:35 PM 75.2 °F 48.2 °F 38% 30.08 in 10.0 mi SSE 5.8 mph - N/A   Clear
4:55 PM 73.4 °F 50.0 °F 44% 30.08 in 10.0 mi SSE 6.9 mph - N/A   Clear
5:16 PM 73.4 °F 51.8 °F 47% 30.08 in 10.0 mi SSE 3.5 mph - N/A Rain Light Rain
5:35 PM 73.4 °F 53.6 °F 50% 30.08 in 10.0 mi SSE 4.6 mph - N/A   Clear
5:55 PM 73.4 °F 53.6 °F 50% 30.09 in 10.0 mi SE 4.6 mph - N/A   Clear
6:15 PM 73.4 °F 53.6 °F 50% 30.08 in 10.0 mi ESE 3.5 mph - N/A Rain Light Rain
6:35 PM 71.6 °F 53.6 °F 53% 30.08 in 10.0 mi ESE 4.6 mph - N/A   Scattered Clouds
6:56 PM 71.6 °F 55.4 °F 57% 30.08 in 10.0 mi ESE 3.5 mph - N/A   Light Drizzle
7:15 PM 69.8 °F 59.0 °F 68% 30.08 in 10.0 mi SE 3.5 mph - N/A Rain Light Rain
7:35 PM 69.8 °F 57.2 °F 64% 30.09 in 10.0 mi SSE 3.5 mph - N/A Rain Light Rain
7:55 PM 68.0 °F 57.2 °F 68% 30.09 in 7.0 mi Calm Calm - N/A Rain Rain
8:15 PM 66.2 °F 57.2 °F 73% 30.08 in 10.0 mi SE 5.8 mph - 0.01 in Rain Rain
8:35 PM 64.4 °F 60.8 °F 88% 30.08 in 10.0 mi Calm Calm - 0.03 in Rain Light Rain
8:55 PM 64.4 °F 60.8 °F 88% 30.09 in 10.0 mi Calm Calm - 0.05 in Rain Light Rain
9:15 PM 64.4 °F 60.8 °F 88% 30.09 in 10.0 mi Calm Calm - 0.05 in Rain Light Rain
9:35 PM 64.4 °F 60.8 °F 88% 30.10 in 10.0 mi Calm Calm - 0.05 in   Mostly Cloudy
9:55 PM 64.4 °F 59.0 °F 83% 30.11 in 10.0 mi ENE 4.6 mph - 0.08 in Rain Light Rain
10:15 PM 62.6 °F 59.0 °F 88% 30.11 in 10.0 mi ENE 3.5 mph - N/A   Overcast
10:36 PM 62.6 °F 59.0 °F 88% 30.11 in 7.0 mi ENE 4.6 mph - 0.02 in Rain Rain
10:55 PM 62.6 °F 59.0 °F 88% 30.11 in 10.0 mi ENE 3.5 mph - 0.06 in Rain Rain
11:15 PM 62.6 °F 59.0 °F 88% 30.10 in 10.0 mi East 3.5 mph - 0.03 in Rain Light Rain
11:36 PM 62.6 °F 59.0 °F 88% 30.10 in 10.0 mi Calm Calm - 0.03 in Rain Rain
11:55 PM 62.6 °F 59.0 °F 88% 30.10 in 7.0 mi ESE 5.8 mph - 0.07 in Rain Rain